Theta_e
320 320 318 317 317 317 317 317 317 317 318 319 320 319 321 317 316 317 318 321 321 323 324 324 324 323 322 321 320 319 316 313 311 308 307 306 306 306 306 306 306 306 305
320 318 317 316 316 316 316 316 317 318 318 317 317 318 317 316 316 315 315 317 318 319 321 322 322 323 322 321 320 318 315 313 311 309 306 304 306 306 306 306 306 306 305
322 320 317 315 315 316 316 316 316 317 317 317 317 317 317 315 314 315 315 315 315 315 318 321 322 323 323 323 320 318 316 315 312 310 310 305 307 307 308 307 305 304 305
323 320 318 316 314 315 316 316 316 316 316 316 316 316 316 315 314 313 313 313 314 315 319 322 323 324 324 323 322 319 318 317 313 309 309 310 310 307 308 307 307 305 304
324 321 318 318 315 315 316 315 316 316 316 315 315 315 314 314 314 314 314 315 314 315 318 320 325 325 325 324 324 320 318 317 314 311 308 309 309 308 307 307 306 306 307
324 323 320 318 316 315 315 315 314 315 315 314 314 314 314 314 314 315 316 316 316 316 318 319 320 322 324 325 324 323 320 319 315 315 313 312 310 308 307 304 304 305 306
323 323 321 319 317 315 314 314 314 314 314 314 314 314 314 314 314 315 316 317 317 318 318 319 319 321 324 324 323 323 321 320 318 316 314 313 313 310 309 308 305 305 306
323 322 322 321 319 316 313 314 314 314 314 314 315 315 315 314 314 315 317 318 318 319 319 320 319 320 324 324 323 322 321 320 318 315 313 314 312 309 310 309 306 302 300
323 323 322 322 320 318 315 313 314 313 314 314 316 315 315 315 316 316 317 319 319 321 321 322 322 322 323 319 320 323 319 320 319 315 312 313 311 310 309 308 306 301 300
322 323 323 322 322 320 317 315 314 314 314 314 314 318 318 317 316 318 320 321 321 321 320 322 324 324 322 324 324 322 321 318 316 313 312 312 311 309 308 307 305 302 300
321 321 323 322 323 322 320 317 316 315 315 316 317 318 318 319 319 320 320 322 323 322 322 322 324 324 323 323 320 319 318 315 312 311 311 309 308 307 305 304 302 301 301
318 321 320 322 322 322 323 321 318 318 318 319 319 320 320 320 321 321 322 323 323 324 323 323 323 318 317 319 319 318 314 312 311 311 309 307 305 305 303 302 301 301 300
315 316 318 318 321 323 323 323 323 322 321 321 321 322 322 323 323 323 323 323 323 323 324 323 324 320 315 317 317 314 313 313 312 309 307 305 304 302 301 301 300 299 299
315 314 315 318 320 321 322 323 323 323 323 323 323 323 324 324 324 324 324 323 323 323 324 322 319 318 315 316 313 313 312 310 309 307 305 304 303 301 300 299 298 297 296
314 316 316 316 316 319 320 321 322 324 324 324 325 324 324 325 325 325 326 324 323 323 323 322 319 318 316 314 312 312 310 307 305 303 303 302 300 298 297 297 297 295 294
313 314 316 316 318 320 322 322 321 322 323 324 325 325 325 325 326 326 326 325 323 322 321 318 317 313 313 314 311 309 306 304 303 302 301 299 298 297 297 296 294 294 291
313 312 314 318 319 323 325 326 327 325 324 324 324 323 323 323 323 322 321 320 317 316 315 314 313 312 311 309 308 306 305 303 302 302 299 297 296 295 294 292 292 291 288
313 311 311 316 321 325 325 325 325 327 326 324 324 323 322 320 318 317 315 314 314 314 313 311 311 310 307 306 305 303 302 301 300 298 297 296 294 292 292 292 290 287 283
314 313 313 317 322 324 323 323 322 322 321 319 319 318 317 313 312 312 312 312 312 310 308 308 307 305 304 303 302 301 300 297 295 295 294 292 289 290 291 287 282 280 281
310 314 318 320 320 319 321 318 315 316 315 315 314 315 315 314 313 312 309 307 306 304 304 302 301 300 300 300 299 299 297 295 294 290 288 285 289 287 281 280 281 281 281
315 317 318 318 317 317 317 313 311 311 312 313 313 312 313 314 312 308 305 302 300 299 297 296 296 297 296 296 296 296 296 295 290 286 285 283 280 278 279 281 281 280 279
314 316 314 312 313 314 314 309 308 307 308 309 308 308 308 307 306 304 299 298 297 294 291 291 290 290 291 292 293 292 290 288 286 283 280 278 278 279 280 280 279 278 277
311 313 310 307 309 311 311 305 303 305 305 304 302 302 301 301 300 299 297 296 294 290 288 287 285 284 285 285 285 287 286 284 281 279 278 278 279 279 279 278 277 276 275
308 308 307 305 304 307 308 305 303 303 303 300 299 298 298 297 297 297 296 295 292 289 287 285 283 282 281 281 281 281 279 278 278 277 278 278 278 277 276 275 275 274 273
307 306 305 303 301 303 303 303 302 302 298 295 294 294 295 295 293 291 291 292 291 292 290 287 285 282 280 279 278 278 277 278 278 278 277 276 276 275 274 274 273 273 272
304 302 301 300 299 299 299 299 300 300 296 291 289 289 288 286 285 284 282 284 286 287 287 286 285 281 279 278 277 277 278 278 277 277 275 274 273 273 273 272 272 271 270
Wind_Speed
6 18 14 16 17 20 21 22 27 31 29 27 31 26 31 24 22 24 24 22 18 15 18 19 18 21 25 26 25 26 24 21 20 15 12 12 16 18 17 17 18 17 16
7 11 17 19 19 24 23 23 22 29 31 30 29 23 28 27 24 23 27 22 18 15 15 18 21 22 25 27 27 27 25 22 19 9 5 1 9 20 21 22 24 23 21
11 11 16 20 24 25 28 25 26 26 27 28 28 28 26 28 28 30 29 28 24 19 18 23 27 26 27 29 30 31 30 25 22 22 10 2 4 3 12 22 24 26 27
11 10 13 19 26 30 31 30 31 30 32 30 31 29 25 24 26 29 33 34 32 28 24 24 30 28 29 30 33 34 34 30 24 21 22 13 6 3 2 11 22 25 25
16 16 16 24 26 28 32 31 32 35 37 35 32 31 28 28 31 31 33 36 41 35 28 30 28 31 33 31 34 36 36 32 28 30 17 19 13 13 4 3 6 14 18
16 15 18 19 21 24 28 32 31 32 36 38 41 37 33 31 30 35 36 35 37 39 35 33 34 36 34 35 37 38 36 36 35 33 33 25 9 14 7 3 8 8 10
14 14 14 16 22 26 30 31 32 34 36 38 37 40 39 41 35 35 37 37 39 39 42 38 38 37 38 35 37 38 38 38 38 38 37 36 29 21 17 13 5 7 8
15 17 18 22 25 29 32 33 34 36 40 39 38 37 38 36 40 36 32 35 40 40 42 40 38 40 36 27 35 36 36 37 36 37 38 34 29 27 21 14 7 2 8
16 19 18 26 27 29 34 38 38 39 38 43 40 39 37 39 35 34 31 35 40 41 38 36 38 38 31 32 44 32 33 39 38 39 37 31 31 25 22 16 13 8 2
16 18 17 25 31 34 37 35 38 39 42 36 37 35 34 36 37 32 33 38 40 39 39 38 31 27 27 40 43 41 33 35 39 40 33 29 26 24 20 16 15 11 7
14 15 18 28 35 33 32 36 35 38 35 38 37 34 36 33 32 36 39 41 36 34 32 30 21 21 27 35 32 33 32 33 35 31 27 26 21 17 16 12 13 9 9
13 13 15 23 27 32 33 37 40 38 42 38 38 40 38 38 39 43 48 41 40 35 33 27 27 37 32 31 30 32 32 33 30 26 24 22 17 15 14 13 11 9 10
9 10 8 12 21 29 31 34 37 42 42 38 39 38 40 42 47 50 42 41 38 36 37 33 36 39 34 34 32 33 30 27 25 23 20 21 20 16 13 11 7 7 9
8 9 11 14 20 26 32 33 36 41 37 38 38 39 40 46 44 42 38 37 39 41 43 39 38 36 31 30 29 28 24 20 19 19 21 19 18 15 10 6 4 6 11
8 7 7 10 10 18 24 29 35 33 32 33 35 40 39 35 34 34 37 34 33 36 38 39 35 30 30 28 27 23 21 19 19 19 18 15 13 10 9 7 8 9 11
10 11 9 8 9 17 24 27 29 32 35 34 34 30 32 33 33 32 33 30 31 31 31 30 29 28 23 22 20 19 19 19 19 18 16 16 12 8 7 6 5 9 7
10 11 11 15 12 21 28 26 27 26 30 28 26 30 29 28 27 26 26 27 29 28 24 24 23 20 19 19 19 18 18 18 18 19 21 16 11 8 6 4 8 9 11
10 10 10 10 20 22 22 21 20 23 25 22 22 23 24 24 24 26 26 26 24 22 20 18 17 18 18 19 19 18 18 19 19 20 16 12 9 7 7 11 13 12 12
14 13 18 13 22 27 25 24 22 23 23 22 23 24 26 27 28 29 29 26 24 21 18 17 17 19 19 19 20 20 22 22 18 14 11 9 6 7 16 14 12 12 11
6 7 10 16 24 26 30 26 21 23 20 23 25 26 25 26 25 23 23 22 21 20 19 18 18 19 21 19 20 21 21 17 13 9 5 2 8 13 9 7 7 8 10
6 14 18 18 20 29 29 21 21 18 23 25 25 24 23 23 22 22 21 22 22 23 23 22 20 22 21 18 17 16 15 13 11 6 4 4 5 5 3 3 3 4 9
9 15 13 15 22 26 27 19 18 22 24 24 23 22 21 21 23 24 23 24 26 26 24 24 21 18 16 15 14 12 9 8 6 4 3 3 3 3 2 1 4 6 10
8 14 16 17 18 21 25 22 21 28 28 26 24 23 22 22 22 25 25 26 25 25 21 22 21 18 15 13 12 10 6 5 3 3 2 1 0 1 2 4 5 8 11
6 11 16 14 14 19 19 25 27 27 29 29 26 25 26 24 22 22 23 25 23 21 21 19 18 17 15 11 8 6 4 3 2 2 1 1 2 1 3 6 6 8 10
9 12 12 15 16 21 22 23 27 30 29 30 29 28 27 26 24 20 16 17 16 20 24 22 23 22 14 8 6 3 2 1 2 3 4 2 1 4 5 5 7 8 10
13 15 16 19 19 22 23 23 25 29 33 29 26 26 28 27 28 30 28 22 17 14 13 14 16 12 13 10 8 6 6 5 4 5 4 2 2 4 3 5 7 9 11
Wind_Direction
172 181 184 185 179 176 176 174 175 184 189 183 183 185 184 208 197 187 185 185 190 186 201 207 206 208 216 213 212 212 210 209 207 202 213 223 222 226 227 231 227 232 234
171 174 182 189 187 182 183 181 177 177 183 190 195 198 209 220 215 207 207 210 204 198 226 229 227 224 221 219 215 209 207 214 207 184 148 205 243 237 232 229 230 232 236
196 187 190 193 193 192 192 186 187 187 186 189 195 206 220 225 225 222 222 232 221 227 250 246 236 230 228 226 219 214 214 210 208 210 190 128 223 209 228 233 231 227 228
192 192 189 198 192 198 199 198 193 194 196 199 203 210 219 224 231 234 235 245 238 239 252 251 236 232 237 234 229 222 223 222 209 207 218 224 212 183 286 243 235 232 233
195 191 195 203 200 195 198 200 201 205 205 208 210 213 215 222 230 236 239 242 237 236 250 246 242 242 241 241 238 231 227 225 223 209 206 217 222 231 186 240 225 227 235
205 206 192 192 200 198 197 199 199 203 209 209 211 212 213 215 219 224 231 234 232 237 248 250 246 247 249 245 243 239 234 231 229 231 227 221 195 208 188 201 239 222 234
198 200 190 185 187 194 199 196 196 202 207 210 212 215 216 219 220 222 226 230 236 243 247 248 246 246 249 247 249 244 239 235 232 233 233 234 234 228 225 219 214 239 261
194 199 201 197 195 193 198 199 203 208 208 209 214 216 220 223 227 228 231 235 239 245 250 255 254 246 241 258 265 253 248 242 237 234 234 232 237 236 236 212 198 244 242
191 199 201 201 201 199 201 202 203 210 210 211 212 216 219 223 228 231 240 246 249 251 253 260 259 248 239 245 253 249 256 243 236 234 234 232 235 235 226 240 231 204 232
196 198 198 204 205 208 208 208 211 211 211 212 216 218 220 228 233 235 243 249 252 253 258 260 255 249 265 249 249 240 244 241 235 232 231 231 233 223 231 227 234 218 217
205 200 195 202 207 209 206 209 214 218 217 217 216 218 223 224 230 236 241 244 246 249 251 249 234 255 261 252 241 248 248 237 229 229 228 231 218 212 227 223 218 228 255
204 203 200 197 201 206 204 204 212 215 216 215 215 213 215 216 223 232 237 235 235 246 242 233 239 242 257 260 251 244 235 225 222 227 226 218 211 215 216 213 221 252 281
214 199 181 195 201 203 205 206 209 217 216 213 213 211 210 212 218 229 225 225 225 226 216 241 246 241 248 253 248 236 228 224 226 229 220 209 210 204 203 222 247 278 286
195 202 199 204 206 203 204 205 211 217 214 211 211 210 209 214 221 226 226 220 218 213 219 225 232 238 240 246 240 221 222 225 224 221 210 209 210 203 203 204 243 289 292
224 211 219 199 196 200 205 208 216 217 209 204 207 211 212 212 215 216 223 220 216 214 216 226 228 239 234 225 219 218 213 210 207 203 203 204 187 178 196 232 270 291 305
209 214 204 226 185 198 205 209 212 213 207 200 205 200 202 202 209 215 213 216 214 213 216 216 216 208 207 216 216 208 202 202 200 191 184 177 181 200 228 252 257 298 308
223 215 194 202 204 206 206 203 209 202 196 196 196 202 205 206 208 208 203 205 201 195 194 192 191 193 199 203 201 200 199 195 190 191 178 175 180 202 228 245 291 288 294
224 230 221 187 201 200 198 191 186 175 175 179 184 189 190 192 192 190 190 191 182 174 175 179 188 194 195 190 188 189 186 183 180 174 174 185 197 229 263 284 282 290 295
228 220 219 187 176 181 179 173 168 163 155 160 166 170 173 168 173 173 174 170 167 166 167 177 183 184 177 183 182 179 172 160 155 164 178 197 205 259 271 277 289 298 309
215 180 160 159 157 163 169 157 152 150 152 161 164 171 177 176 172 169 163 160 162 160 162 161 169 172 160 165 166 170 163 154 159 168 179 193 259 267 278 290 302 317 325
167 147 152 157 161 160 161 147 142 145 165 169 166 168 173 175 175 164 160 156 155 148 143 140 141 143 147 155 166 173 173 177 173 179 206 257 283 290 308 300 327 338 310
145 153 137 132 149 155 151 134 127 151 159 160 160 160 162 162 162 160 156 156 154 145 139 136 125 127 135 146 150 152 162 156 170 180 227 272 286 305 309 260 321 316 315
146 139 130 123 135 149 151 129 140 154 151 148 149 150 151 155 160 158 154 152 154 142 134 134 132 132 133 132 136 152 155 174 187 194 211 185 201 194 215 300 322 320 329
76 105 118 113 104 135 144 145 145 148 143 132 134 141 138 139 146 150 156 156 151 145 148 145 142 144 138 135 135 135 133 128 131 133 143 158 160 293 321 323 329 328 332
52 90 102 101 95 121 127 141 146 149 131 127 128 131 130 129 121 117 128 143 160 175 170 168 162 152 138 129 118 121 116 101 107 129 154 162 358 342 336 327 331 331 335
86 79 81 92 96 107 116 133 146 149 136 118 120 127 126 123 118 113 97 95 106 125 141 147 152 131 127 115 106 103 99 108 133 149 162 153 6 350 335 332 332 332 329